Flag for U.S.A. Weather past 2 weeks in Winston-Salem, North Carolina, U.S.A.

Now
43 °F

Fog.


Feels Like: 39 °F
Forecast: 45 / 58 °F
Wind: 7 mph from Northeast

Location: Smith Reynolds Airport

Current Time: Apr 26, 2015 at 4:45:57 AM

Latest Report: Apr 26, 2015 at 3:54 AM


Visibility: 5 mi

Pressure: 29.61 "Hg

Humidity: 97%

Dew point: 42 °F

Location of Winston-SalemLocation

Historic Weather in Winston-Salem — Graph

°F

Winston-Salem temperature yesterday

Maximum temperature yesterday: 56 °F (at 1:54 AM)
Minimum temperature yesterday: 44 °F (at 10:54 PM)
Average temperature yesterday: 49 °F

Past Weeks' High & Low Weather Summary

 TemperatureHumidityPressure
High79 °F (Apr 18, 2:54 PM)100% (Apr 18, 6:54 AM)30.40 "Hg (Apr 18, 6:54 AM)
Low41 °F (Apr 24, 3:54 AM)15% (Apr 23, 3:54 PM)29.59 "Hg (Apr 20, 6:54 PM)
Average60 °F65%30.01 "Hg
* Reported Apr 11 2:54 AM — Apr 26 2:54 AM, Winston-Salem, Weather by CustomWeather, © 2015

Note: Actual official high and low records may vary slightly from our data, if they occured in-between our weather recording intervals... More about our weather records

Advertising

Winston-Salem weather history for previous 24 hours

 ConditionsComfort  
Time TempWeatherWind HumidityBarometerVisibility
2:54 AM
Sun, Apr 26
44 °FFog.7 mph93%29.62 "Hg4 mi
1:54 AM44 °FFog.7 mph96%29.63 "Hg4 mi
12:54 AM44 °FFog.6 mph96%29.64 "Hg2 mi
11:54 PM
Sat, Apr 25
45 °FFog.6 mph93%29.65 "Hg4 mi
10:54 PM44 °FFog.8 mph96%29.67 "Hg3 mi
9:54 PM45 °FFog.7 mph93%29.67 "Hg3 mi
8:54 PM46 °FFog.6 mph93%29.67 "Hg2 mi
7:54 PM46 °FFog.8 mph93%29.66 "Hg2 mi
7:03 PM46 °FFog.7 mph96%29.69 "Hg2 mi
6:54 PM46 °FFog.9 mph93%29.68 "Hg2 mi
5:54 PM47 °FFog.8 mph93%29.70 "Hg2 mi
5:01 PM47 °FFog.8 mph93%29.74 "Hg2 mi
3:54 PM47 °FFog.9 mph93%29.75 "Hg1 mi
2:54 PM47 °FFog.5 mph93%29.78 "Hg4 mi
1:54 PM47 °FLight rain. Fog.8 mph90%29.81 "Hg3 mi
12:54 PM46 °FLight rain. Fog.9 mph89%29.85 "Hg2 mi
11:54 AM48 °FOvercast.6 mph86%29.85 "Hg9 mi
10:54 AM48 °FLight rain. Overcast.6 mph80%29.88 "Hg10 mi
9:54 AM50 °FLight rain. Overcast.5 mph66%29.90 "Hg9 mi
8:54 AM51 °FMostly cloudy.5 mph61%29.90 "Hg10 mi
7:54 AM50 °FOvercast.6 mph66%29.91 "Hg10 mi
6:54 AM52 °FOvercast.No wind69%29.88 "Hg10 mi
5:54 AM52 °FLight rain. Mostly cloudy.No wind66%29.88 "Hg10 mi
4:54 AM53 °FOvercast.No wind64%29.88 "Hg10 mi
Weather by CustomWeather, © 2015

See weather overviewHow to use our weather pages